#timestamp,LO_Frequency,Hit,StdDev 
1510416015.8,286047001.9,N
1510416035.6,286047000.9,N
1510416055.5,286047002.6,N
1510416075.3,286047002.6,N
1510416095.1,286047002.8,N
1510416115.9,286047001.3,N
1510416135.7,286047002.6,N
1510416155.5,286047000.3,N
1510416175.4,286046999.9,N
1510416195.2,286046999.8,N
1510416215.1,286047000.9,N
1510416216.0,286047000.9,N
1510416235.8,286047000.6,N
1510416255.6,286047000.7,N
1510416275.5,286046998.5,N
1510416295.3,286046998.4,N
1510416315.1,286047001.1,N
1510416335.9,286047000.0,N
1510416355.7,286047000.6,N
1510416375.6,286047001.1,N
1510416395.4,286047001.0,N
1510416415.2,286047000.6,N
1510416435.1,286046999.0,N
1510416436.0,286046999.0,N
1510416455.8,286046999.3,N
1510416475.6,286046997.8,N
1510416495.5,286046994.9,Y
1510416515.3,286046995.1,P
1510416535.2,286046997.8,N
1510416555.0,286046997.7,N
1510416555.9,286046997.7,N
1510416575.8,286046993.4,Y
1510416595.6,286046997.1,P
1510416615.4,286046999.6,N
1510416635.3,286046999.0,N
1510416655.1,286046998.6,N
1510416675.9,286046998.7,N
1510416695.7,286047000.8,N
1510416715.5,286046998.8,N
1510416735.4,286047000.7,N
1510416755.2,286046999.0,N
1510416775.0,286046996.8,N
1510416775.9,286046996.8,N
1510416795.8,286046997.3,N
1510416815.6,286046994.9,Y
1510416835.5,286046997.8,P
1510416855.3,286046997.4,P
1510416875.1,286046994.9,P
1510416895.9,286046994.9,Y
1510416915.7,286046998.6,P
1510416935.6,286046999.9,N
1510416955.4,286047000.0,N
1510416975.2,286047002.4,N
1510416995.1,286046998.1,N
1510416996.0,286046998.1,N
1510417015.8,286046999.1,N
1510417035.6,286046998.1,N
1510417055.5,286047000.8,N
1510417075.3,286047000.2,N
1510417095.2,286046999.7,N
1510417115.9,286047001.8,N
1510417135.7,286047004.1,N
1510417155.6,286047011.9,Y
1510417175.4,286047003.8,P
1510417195.3,286047001.8,N
1510417215.1,286047001.7,N
1510417216.0,286047001.7,N
1510417235.8,286047003.6,N
1510417255.7,286047002.2,N
1510417275.5,286047000.2,N
1510417295.3,286047002.3,N
1510417315.2,286047002.0,N
1510417335.0,286047002.1,N
1510417335.9,286047002.1,N
1510417355.8,286047001.8,N
1510417375.6,286047001.4,N
1510417395.4,286047004.3,Y
1510417415.3,286047000.9,P
1510417435.1,286046998.1,P
1510417455.8,286047000.5,N
1510417475.7,286047000.7,N
1510417495.5,286047000.3,N
1510417515.3,286046998.5,N
1510417535.2,286046996.6,N
1510417555.0,286046999.2,N
1510417555.9,286046999.2,N
1510417575.8,286046997.1,N
1510417595.6,286046997.7,N
1510417615.4,286046997.9,N
1510417635.3,286046997.0,N
1510417655.1,286046998.7,N
1510417675.9,286046998.4,N
1510417695.7,286047001.1,N
1510417715.5,286047001.2,N
1510417735.4,286047000.3,N
1510417755.2,286046998.2,N
1510417775.0,286046999.5,N
1510417776.0,286046999.5,N
1510417795.8,286046997.7,N
1510417815.6,286046997.3,N
1510417835.5,286046996.9,N
1510417855.3,286046999.4,N
1510417875.1,286046998.9,N
1510417895.9,286046999.2,N
1510417915.7,286046996.5,N
1510417935.5,286046997.8,N
1510417955.4,286046999.1,N
1510417975.2,286046997.6,N
1510417995.1,286046995.1,Y
1510417996.0,286046995.1,P
1510418015.8,286046995.3,N
1510418035.6,286046997.2,N
1510418055.5,286046997.2,N
1510418075.3,286046996.6,N
1510418125.2,286046999.4,E
1510418135.1,286046999.2,N
1510418155.8,286046998.7,P
1510418175.7,286046998.9,P
1510418195.5,286046997.4,Y
1510418215.4,286047000.8,P
1510418235.2,286046998.7,N
1510418255.0,286046997.2,P
1510418255.9,286046997.2,N
1510418275.8,286046997.2,N
1510418295.6,286046998.9,N
1510418315.4,286046996.9,N
1510418335.3,286046996.6,N
1510418355.1,286046998.3,N
1510418375.8,286046999.2,N
1510418395.7,286046999.1,N
1510418415.5,286046996.9,N
1510418435.4,286046998.1,N
1510418455.2,286047001.0,N
1510418475.0,286046999.0,N
1510418475.9,286046999.0,N
1510418495.8,286046999.0,N
1510418515.6,286046997.2,N
1510418535.5,286046995.5,Y
1510418555.3,286046999.3,P
1510418575.1,286047001.1,N
1510418595.9,286047000.7,N
1510418615.7,286047002.8,N
1510418635.5,286047002.4,N
1510418655.4,286047002.7,N
1510418675.2,286047001.0,N
1510418695.0,286047000.3,N
1510418696.0,286047000.3,N
1510418715.8,286047000.5,N
1510418735.6,286047002.8,N
1510418755.5,286047002.8,N
1510418775.3,286046999.7,N
1510418795.1,286047001.0,N
1510418815.9,286047000.7,N
1510418835.7,286046999.8,N
1510418855.5,286047002.5,N
1510418875.4,286047002.7,N
1510418895.2,286047001.5,N
1510418915.1,286047002.0,N
1510418916.0,286047002.0,N
1510418935.8,286047004.2,Y
1510418955.6,286047001.4,P
1510418975.5,286047004.1,P
1510418995.3,286047002.3,N
1510419015.2,286047002.0,N
1510419035.9,286047000.5,N
1510419055.7,286047000.0,N
1510419075.6,286046999.9,N
1510419095.4,286047001.8,N
1510419115.2,286047002.3,N
1510419135.1,286047001.5,N
1510419136.0,286047001.5,N
1510419155.8,286047002.3,N
1510419175.7,286047000.0,N
1510419195.5,286047002.1,N
1510419215.3,286047000.1,N
1510419235.2,286047000.2,N
1510419255.9,286047001.1,N
1510419275.7,286046998.2,N
1510419295.6,286047000.6,N
1510419315.4,286047000.5,N
1510419335.2,286047000.6,N
1510419355.1,286047000.0,N
1510419356.0,286047000.0,N
1510419375.8,286047001.8,N
1510419395.7,286047001.0,N
1510419415.5,286047000.6,N
1510419435.3,286047001.5,N
1510419455.2,286047001.9,N
1510419475.0,286047001.3,N
1510419475.9,286047001.3,N
1510419495.7,286047000.5,N
1510419515.6,286046998.4,N
1510419535.4,286047000.8,N
1510419555.3,286046998.2,N
1510419575.1,286047000.7,N
1510419576.0,286047000.7,N
1510419595.8,286047000.8,N
